TimeCST,TemperatureF,Dew PointF,Humidity,Sea Level PressureIn,VisibilityMPH,Wind Direction,Wind SpeedMPH,Gust SpeedMPH,PrecipitationIn,Events,Conditions,WindDirDegrees,DateUTC
12:14 AM,46.4,44.6,93,29.79,2.5,Calm,Calm,-,N/A,,Overcast,0,2013-12-03 06:14:00
12:28 AM,44.6,44.6,100,29.79,3.0,Calm,Calm,-,N/A,,Overcast,0,2013-12-03 06:28:00
12:53 AM,46.9,45.0,93,29.78,3.0,Calm,Calm,-,N/A,,Overcast,0,2013-12-03 06:53:00
1:17 AM,48.2,46.4,93,29.79,2.5,Calm,Calm,-,N/A,,Overcast,0,2013-12-03 07:17:00
1:53 AM,48.9,48.0,97,29.79,2.0,Calm,Calm,-,N/A,,Overcast,0,2013-12-03 07:53:00
2:53 AM,48.9,48.0,97,29.80,2.5,Calm,Calm,-,N/A,,Overcast,0,2013-12-03 08:53:00
3:35 AM,48.2,48.2,100,29.79,1.8,Calm,Calm,-,N/A,,Overcast,0,2013-12-03 09:35:00
3:46 AM,48.2,48.2,100,29.79,2.0,Calm,Calm,-,N/A,,Overcast,0,2013-12-03 09:46:00
3:53 AM,48.9,48.0,97,29.79,2.0,Calm,Calm,-,N/A,,Overcast,0,2013-12-03 09:53:00
4:53 AM,50.0,48.9,96,29.79,2.5,Calm,Calm,-,N/A,,Overcast,0,2013-12-03 10:53:00
5:19 AM,50.0,48.2,94,29.79,1.8,Calm,Calm,-,N/A,,Overcast,0,2013-12-03 11:19:00
5:28 AM,50.0,48.2,94,29.79,2.0,Calm,Calm,-,N/A,,Overcast,0,2013-12-03 11:28:00
5:44 AM,50.0,48.2,94,29.79,2.0,Calm,Calm,-,N/A,,Overcast,0,2013-12-03 11:44:00
5:53 AM,50.0,48.9,96,29.79,2.0,Calm,Calm,-,N/A,,Overcast,0,2013-12-03 11:53:00
6:53 AM,50.0,48.9,96,29.81,1.8,Calm,Calm,-,N/A,,Overcast,0,2013-12-03 12:53:00
7:04 AM,51.8,48.2,88,29.80,0.8,SE,3.5,-,N/A,,Overcast,130,2013-12-03 13:04:00
7:31 AM,51.8,50.0,94,29.81,0.5,South,5.8,-,N/A,Fog,Fog,170,2013-12-03 13:31:00
7:44 AM,51.8,51.8,100,29.82,1.0,South,4.6,-,N/A,,Overcast,170,2013-12-03 13:44:00
7:53 AM,52.0,50.0,93,29.82,1.5,SSE,3.5,-,N/A,,Overcast,150,2013-12-03 13:53:00
8:11 AM,53.6,50.0,88,29.82,2.5,SSE,3.5,-,N/A,,Overcast,150,2013-12-03 14:11:00
8:21 AM,53.6,51.8,94,29.83,2.5,SSE,4.6,-,N/A,,Overcast,160,2013-12-03 14:21:00
8:28 AM,53.6,50.0,88,29.83,3.0,SSE,4.6,-,N/A,,Overcast,160,2013-12-03 14:28:00
8:50 AM,53.6,50.0,88,29.83,4.0,SSE,4.6,-,N/A,,Overcast,160,2013-12-03 14:50:00
8:53 AM,54.0,50.0,86,29.83,4.0,SE,4.6,-,N/A,,Overcast,140,2013-12-03 14:53:00
9:05 AM,53.6,50.0,88,29.84,5.0,SSE,4.6,-,N/A,,Overcast,150,2013-12-03 15:05:00
9:53 AM,55.0,50.0,83,29.84,10.0,SSE,4.6,-,N/A,,Overcast,160,2013-12-03 15:53:00
10:07 AM,55.4,50.0,82,29.84,10.0,SE,4.6,-,N/A,,Overcast,140,2013-12-03 16:07:00
10:15 AM,55.4,50.0,82,29.84,9.0,East,3.5,-,N/A,,Overcast,100,2013-12-03 16:15:00
10:53 AM,55.9,50.0,80,29.82,8.0,SE,5.8,-,N/A,,Overcast,130,2013-12-03 16:53:00
11:53 AM,57.9,50.0,75,29.81,10.0,SSE,8.1,-,N/A,,Overcast,150,2013-12-03 17:53:00
12:53 PM,59.0,51.1,75,29.78,10.0,ESE,9.2,-,N/A,,Overcast,120,2013-12-03 18:53:00
1:02 PM,60.8,51.8,72,29.78,10.0,Variable,5.8,-,N/A,,Mostly Cloudy,0,2013-12-03 19:02:00
1:30 PM,59.0,50.0,72,29.77,10.0,SSE,9.2,-,N/A,,Mostly Cloudy,160,2013-12-03 19:30:00
1:53 PM,60.1,50.0,69,29.77,10.0,SSE,10.4,-,N/A,,Mostly Cloudy,150,2013-12-03 19:53:00
2:26 PM,59.0,51.8,77,29.77,10.0,SSE,9.2,-,N/A,,Overcast,150,2013-12-03 20:26:00
2:36 PM,59.0,51.8,77,29.77,10.0,SE,8.1,-,N/A,,Overcast,130,2013-12-03 20:36:00
2:53 PM,59.0,51.1,75,29.76,10.0,SE,10.4,-,N/A,,Overcast,140,2013-12-03 20:53:00
3:04 PM,59.0,51.8,77,29.77,10.0,SE,9.2,-,N/A,,Overcast,140,2013-12-03 21:04:00
3:53 PM,57.9,51.1,78,29.76,8.0,SE,8.1,-,N/A,,Overcast,130,2013-12-03 21:53:00
4:12 PM,57.2,51.8,82,29.77,8.0,SSE,5.8,-,N/A,,Overcast,160,2013-12-03 22:12:00
4:32 PM,57.2,51.8,82,29.77,7.0,SSE,5.8,-,N/A,,Overcast,150,2013-12-03 22:32:00
4:53 PM,55.9,50.0,80,29.78,8.0,SSE,5.8,-,N/A,,Mostly Cloudy,150,2013-12-03 22:53:00
5:53 PM,51.1,48.9,92,29.78,6.0,SE,4.6,-,N/A,,Mostly Cloudy,130,2013-12-03 23:53:00
6:53 PM,54.0,50.0,86,29.79,7.0,SSE,3.5,-,N/A,,Mostly Cloudy,150,2013-12-04 00:53:00
7:53 PM,54.0,50.0,86,29.79,7.0,Calm,Calm,-,N/A,,Mostly Cloudy,0,2013-12-04 01:53:00
8:42 PM,55.4,51.8,88,29.80,6.0,Calm,Calm,-,N/A,,Overcast,0,2013-12-04 02:42:00
8:53 PM,54.0,51.1,90,29.80,6.0,SSE,4.6,-,N/A,,Overcast,160,2013-12-04 02:53:00
9:24 PM,53.6,50.0,88,29.81,6.0,South,3.5,-,N/A,,Mostly Cloudy,180,2013-12-04 03:24:00
9:49 PM,51.8,48.2,88,29.81,5.0,Calm,Calm,-,N/A,,Scattered Clouds,0,2013-12-04 03:49:00
9:53 PM,50.0,48.9,96,29.81,5.0,Calm,Calm,-,N/A,,Partly Cloudy,0,2013-12-04 03:53:00
10:33 PM,48.2,46.4,93,29.81,2.5,Calm,Calm,-,N/A,,Mostly Cloudy,0,2013-12-04 04:33:00
10:46 PM,50.0,50.0,100,29.81,4.0,Calm,Calm,-,N/A,,Overcast,0,2013-12-04 04:46:00
10:53 PM,51.1,50.0,96,29.81,4.0,South,4.6,-,N/A,,Overcast,180,2013-12-04 04:53:00
11:53 PM,55.9,53.1,90,29.81,6.0,South,10.4,-,N/A,,Overcast,190,2013-12-04 05:53:00